Orbital Elements
Epoch 2015 Oct. 25.0 TT = JDT 2457320.5
T 2015 Nov. 5.95919 TT MPCW
q 1.6294095 (2000.0) P Q
n 0.14540723 Peri. 162.33629 -0.68573429 -0.72522651
a 3.5816135 Node 330.86321 +0.65154550 -0.57380353
e 0.5450627 Incl. 7.28794 +0.32443326 -0.38052071
P 6.78
From 393 observations 2008 Dec. 1-2016 Apr. 27, mean residual 0".4.
|